Regional Weather Roundup
Issued by NWS

Home | Current Version | Previous Version | Graphics & Text | Print | Product List | Glossary On
Versions: 1 2 3 4 5 6 7 8 9 10 11 12 13 14 15 16 17 18 19 20 21 22 23 24 25 26 27 28 29 30 31 32 33 34 35 36 37 38 39 40 41 42 43 44 45 46 47 48 49 50
000
ASUS43 KMKX 030321
RWRWI

WISCONSIN REGIONAL WEATHER ROUNDUP
NATIONAL WEATHER SERVICE MILWAUKEE/SULLIVAN WI
1000 PM CDT SAT MAY 02 2015

NOTE: "FAIR" INDICATES FEW OR NO CLOUDS BELOW 12,000 FEET WITH NO
SIGNIFICANT WEATHER AND/OR OBSTRUCTIONS TO VISIBILITY.

WIZ001-002-006>008-014>016-023>028-030400-
NORTHWEST WISCONSIN

CITY           SKY/WX    TMP DP  RH WIND       PRES   REMARKS
SUPERIOR ARPT  PTCLDY    42  40  91 CALM      29.77S
ASHLAND        PTCLDY    49  44  83 CALM      29.78R
HAYWARD        PTCLDY    60  47  61 CALM      29.79R
SIREN          PTCLDY    59  44  57 CALM      29.77S
CUMBERLAND     CLEAR     61  37  41 CALM      29.79R
RICE LAKE      CLEAR     60  41  49 CALM      29.81R
CHETEK         PTCLDY    64  45  48 MISG      29.79R
LADYSMITH      CLEAR     67  44  43 SE6       29.82R
EAU CLAIRE     CLEAR     71  48  43 S14       29.80R
MENOMONIE      FAIR      71  47  42 S13G20    29.80R
NEW RICHMOND   CLEAR     66  42  42 S7        29.79R
OSCEOLA        CLOUDY    62  44  51 S6        29.79R
$$

WIZ003>005-009-010-017-018-030400-
NORTH CENTRAL WISCONSIN

CITY           SKY/WX    TMP DP  RH WIND       PRES   REMARKS
MANITOWISH WTR CLEAR     54  44  67 S3        29.82S
ARBOR VITAE    CLEAR     59  43  54 SE3       29.83S
WOODRUFF       CLEAR     59  43  54 SE3       29.83S
RHINELANDER    CLEAR     64  41  42 S6        29.85S
EAGLE RIVER    CLEAR     53  42  64 CALM      29.84S
LAND O LAKES   CLEAR     51  43  75 CALM      29.84S
PHILLIPS       PTCLDY    62  43  49 S6        29.82R
TOMAHAWK       CLEAR     59  41  51 CALM      29.85R
MEDFORD        PTCLDY    60  43  54 S8        29.85R
MERRILL        CLEAR     65  43  44 SW6       29.85S
$$

WIZ029-030-035-036-043>047-030400-
CENTRAL WISCONSIN

CITY           SKY/WX    TMP DP  RH WIND       PRES   REMARKS
WAUSAU         PTCLDY    65  44  46 S5        29.84R
MOSINEE        NOT AVBL
MARSHFIELD     CLEAR     67  46  47 S14       29.86R
STEVENS POINT  CLEAR     64  41  43 S8        29.87S
WAUPACA        CLEAR     64  42  44 S7        29.88S
WAUTOMA        CLEAR     67  40  37 S6        29.90R
WISC RAPIDS    CLEAR     65  40  39 S7        29.88R
CAMP DOUGLAS   CLEAR     67  49  51 S7        29.87R
$$

WIZ011>013-019>022-031-037>040-048>050-030400-
NORTHEAST WISCONSIN

CITY           SKY/WX    TMP DP  RH WIND       PRES   REMARKS
ANTIGO         CLEAR     56  41  57 S8        29.87S
SHAWANO        CLEAR     67  41  38 S3        29.87R
OCONTO         CLEAR     60  45  56 S7        29.86S
STURGEON BAY   CLEAR     57  36  44 S12       29.90S
GREEN BAY      CLEAR     63  45  51 S9        29.88R
MANITOWOC      CLEAR     52  40  63 S6        29.91S
APPLETON       PTCLDY    63  43  48 SW8       29.89S
CLINTONVILLE   CLEAR     63  41  45 S6        29.86S
OSHKOSH        PTCLDY    64  43  46 S9        29.90R
$$

WIZ032>034-041-042-053>061-030400-
SOUTHWEST WISCONSIN

CITY           SKY/WX    TMP DP  RH WIND       PRES   REMARKS
LA CROSSE      CLEAR     69  50  50 S9        29.85R
SPARTA         CLEAR     66  47  50 S6        29.89R
VIROQUA        CLEAR     62  48  58 S8        29.90S
BOSCOBEL       CLEAR     65  48  54 W3        29.91R
PRAIRIE DU CHI CLEAR     65  48  53 S5        29.90S
PLATTEVILLE    PTCLDY    58  48  67 S7        29.93S
$$

WIZ056-057-062-063-064-067-068-030400-
SOUTH CENTRAL WISCONSIN

CITY           SKY/WX    TMP DP  RH WIND       PRES   REMARKS
REEDSBURG      PTCLDY    63  48  57 S6        29.90S
BARABOO/DELLS  NOT AVBL
LONE ROCK      CLEAR     60  47  61 CALM      29.91R
MINERAL POINT  PTCLDY    63  46  55 S6        29.93S
MADISON        MOCLDY    62  43  49 SW3       29.93R
MIDDLETON      PTCLDY    66  37  33 SW5       29.93S
WATERTOWN      PTCLDY    62  43  49 CALM      29.92S
MONROE         PTCLDY    63  46  55 SW9       29.94S
JANESVILLE     PTCLDY    64  37  36 CALM      29.94S
$$

WIZ051-052-058>065-066-070>072-030400-
SOUTHEAST WISCONSIN

CITY           SKY/WX    TMP DP  RH WIND       PRES   REMARKS
MILWAUKEE      PTCLDY    60  36  40 S9        29.94S
WAUKESHA       PTCLDY    63  37  39 S5        29.95S
MILWAUKEE/TIMM CLEAR     63  36  36 S3        29.94S
RACINE         PTCLDY    57  36  45 S6        29.96S
BURLINGTON     MOCLDY    58  39  50 S5        29.94F
KENOSHA        PTCLDY    58  41  53 S7        29.95S
FOND DU LAC    MOCLDY    59  43  55 S7        29.91R
SHEBOYGAN      PTCLDY    52  38  58 S5        29.92S
WEST BEND      MOCLDY    61  39  44 S3        29.93R
JUNEAU         CLEAR     62  43  48 S7        29.93S
$$

LSZ147-162-030400-
LAKE SUPERIOR

STATION/POSITION TIME  TEMP    WIND        PRES    WAVE
                       AIR SEA DIR/SP/G            HT/PER
                 (UTC) (F)     (DEG/KT/KT) (MB)    (FT/S)
W MID LAKE BUOY  0250   46 35  140/ 12/ 14 1008.1R   1
DEVILS ISLAND    0300           20/  7/  8 1008.6R
PORT WING        0240   41     190/  3/  4 1008.5R
SAXON HARBOR     0200   50        CALM     1007.5
$$

LMZ867-665-643>646-030400-
LAKE MICHIGAN

STATION/POSITION TIME  TEMP    WIND        PRES    WAVE
                       AIR SEA DIR/SP/G            HT/PER
                 (UTC) (F)     (DEG/KT/KT) (MB)    (FT/S)
CHAMBERS ISLAND  0200   60     150/  7/ 14 1011.2R
NORTHPORT PIER   0300   58     190/  7/ 23 1011.2S
SISTER BAY       0202   59     190/ 23/ 27   N/A
KEWAUNEE LAKESHO 0300          180/ 14/ 16   N/A
SHEBOYGAN LAKESH 0300   49     180/ 15/ 15 1013.6R
PORT WASHINGTON  0200   51     160/  2/  5 1014.2
ATWATER BUOY     0300   49     170/  8/  8 1015.0R
MILWAUKEE LAKESH 0300   59     170/  4/  5   N/A
KENOSHA   LAKESH 0300   53     180/  8/  9 1014.2S
$$

TC  - TEMPERATURE IN CELSIUS
VSB - VISIBILITY IN STATUTE MILES
WCI - WIND CHILL INDEX
HX  - HEAT INDEX



USA.gov is the U.S. government's official web portal to all federal, state and local government web resources and services.